Time,TemperatureF,DewpointF,PressureIn,WindDirection,WindDirectionDegrees,WindSpeedMPH,WindSpeedGustMPH,Humidity,HourlyPrecipIn,Conditions,Clouds,dailyrainin,SoftwareType,DateUTC
2013-03-01 00:00:00,46.9,10.1,30.35,WNW,294,3.6,4.0,22,0.00,,CLR,0.00,VWS V14.01,2013-03-01 08:00:00,
2013-03-01 00:05:00,46.9,10.1,30.35,WNW,303,0.0,0.0,22,0.00,,CLR,0.00,VWS V14.01,2013-03-01 08:05:00,
2013-03-01 00:10:00,46.8,9.9,30.35,WNW,303,0.0,0.0,22,0.00,,CLR,0.00,VWS V14.01,2013-03-01 08:10:00,
2013-03-01 00:15:00,46.6,9.8,30.35,WNW,296,5.8,6.3,22,0.00,,CLR,0.00,VWS V14.01,2013-03-01 08:15:00,
2013-03-01 00:20:00,46.4,9.6,30.35,WNW,297,4.9,4.9,22,0.00,,CLR,0.00,VWS V14.01,2013-03-01 08:20:00,
2013-03-01 00:25:00,46.2,9.5,30.35,WNW,300,0.0,0.0,22,0.00,,CLR,0.00,VWS V14.01,2013-03-01 08:25:00,
2013-03-01 00:30:00,46.0,9.3,30.35,WNW,300,0.0,0.0,22,0.00,,CLR,0.00,VWS V14.01,2013-03-01 08:30:00,
2013-03-01 00:35:00,46.0,9.3,30.35,WNW,283,4.9,5.8,22,0.00,,CLR,0.00,VWS V14.01,2013-03-01 08:35:00,
2013-03-01 00:40:00,46.2,9.5,30.35,WNW,293,3.6,4.0,22,0.00,,CLR,0.00,VWS V14.01,2013-03-01 08:40:00,
2013-03-01 00:45:00,46.2,9.5,30.35,WNW,289,0.0,0.0,22,0.00,,CLR,0.00,VWS V14.01,2013-03-01 08:45:00,
2013-03-01 00:50:00,46.2,9.5,30.35,WNW,289,0.0,0.0,22,0.00,,CLR,0.00,VWS V14.01,2013-03-01 08:50:00,
2013-03-01 00:55:00,46.2,9.5,30.35,WNW,289,0.0,0.0,22,0.00,,CLR,0.00,VWS V14.01,2013-03-01 08:55:00,
2013-03-01 01:00:00,46.2,9.5,30.35,WNW,288,0.0,0.0,22,0.00,,CLR,0.00,VWS V14.01,2013-03-01 09:00:00,
2013-03-01 01:05:00,46.2,9.5,30.35,WNW,296,3.6,3.6,22,0.00,,CLR,0.00,VWS V14.01,2013-03-01 09:05:00,
2013-03-01 01:10:00,46.2,9.5,30.35,WNW,303,4.5,6.3,22,0.00,,CLR,0.00,VWS V14.01,2013-03-01 09:10:00,
2013-03-01 01:15:00,46.2,9.5,30.35,WNW,300,5.4,5.4,22,0.00,,CLR,0.00,VWS V14.01,2013-03-01 09:15:00,
2013-03-01 01:20:00,46.2,9.5,30.35,NW,312,6.3,6.3,22,0.00,,CLR,0.00,VWS V14.01,2013-03-01 09:20:00,
2013-03-01 01:25:00,46.2,9.5,30.35,WNW,282,4.9,6.3,22,0.00,,CLR,0.00,VWS V14.01,2013-03-01 09:25:00,
2013-03-01 01:30:00,46.2,9.5,30.35,WNW,301,0.0,0.0,22,0.00,,CLR,0.00,VWS V14.01,2013-03-01 09:30:00,
2013-03-01 01:35:00,46.4,9.6,30.35,WNW,289,5.4,5.8,22,0.00,,CLR,0.00,VWS V14.01,2013-03-01 09:35:00,
2013-03-01 01:40:00,46.6,9.8,30.35,WNW,294,5.4,5.4,22,0.00,,CLR,0.00,VWS V14.01,2013-03-01 09:40:00,
2013-03-01 01:45:00,46.4,9.6,30.35,WNW,285,5.8,5.8,22,0.00,,CLR,0.00,VWS V14.01,2013-03-01 09:45:00,
2013-03-01 01:50:00,46.4,9.6,30.35,West,273,5.8,7.2,22,0.00,,CLR,0.00,VWS V14.01,2013-03-01 09:50:00,
2013-03-01 01:55:00,46.4,9.6,30.35,WNW,284,3.1,4.0,22,0.00,,CLR,0.00,VWS V14.01,2013-03-01 09:55:00,
2013-03-01 02:00:00,46.2,9.5,30.35,West,277,2.7,3.1,22,0.00,,CLR,0.00,VWS V14.01,2013-03-01 10:00:00,
2013-03-01 02:05:00,46.0,9.3,30.35,WNW,284,0.0,0.0,22,0.00,,CLR,0.00,VWS V14.01,2013-03-01 10:05:00,
2013-03-01 02:10:00,45.7,9.0,30.35,WNW,289,5.8,6.3,22,0.00,,CLR,0.00,VWS V14.01,2013-03-01 10:10:00,
2013-03-01 02:15:00,45.5,8.9,30.35,WNW,299,4.0,4.0,22,0.00,,CLR,0.00,VWS V14.01,2013-03-01 10:15:00,
2013-03-01 02:20:00,45.3,8.7,30.35,WNW,299,0.0,0.0,22,0.00,,CLR,0.00,VWS V14.01,2013-03-01 10:20:00,
2013-03-01 02:25:00,45.1,8.6,30.35,WNW,299,3.6,3.6,22,0.00,,CLR,0.00,VWS V14.01,2013-03-01 10:25:00,
2013-03-01 02:30:00,45.1,8.6,30.35,WNW,299,2.7,2.7,22,0.00,,CLR,0.00,VWS V14.01,2013-03-01 10:30:00,
2013-03-01 02:35:00,44.8,8.3,30.35,WNW,299,0.0,0.0,22,0.00,,CLR,0.00,VWS V14.01,2013-03-01 10:35:00,
2013-03-01 02:40:00,44.8,8.3,30.35,NW,310,0.0,0.0,22,0.00,,CLR,0.00,VWS V14.01,2013-03-01 10:40:00,
2013-03-01 02:45:00,44.4,8.9,30.35,NW,310,4.0,4.0,23,0.00,,CLR,0.00,VWS V14.01,2013-03-01 10:45:00,
2013-03-01 02:50:00,44.2,8.8,30.35,NW,312,3.1,3.1,23,0.00,,CLR,0.00,VWS V14.01,2013-03-01 10:50:00,
2013-03-01 02:55:00,43.7,8.3,30.35,NNW,330,4.0,5.4,23,0.00,,CLR,0.00,VWS V14.01,2013-03-01 10:55:00,
2013-03-01 03:00:00,43.5,8.2,30.35,WNW,288,6.3,6.3,23,0.00,,CLR,0.00,VWS V14.01,2013-03-01 11:00:00,
2013-03-01 03:05:00,43.9,8.5,30.35,WNW,303,8.1,8.1,23,0.00,,CLR,0.00,VWS V14.01,2013-03-01 11:05:00,
2013-03-01 03:10:00,44.2,8.8,30.35,NW,312,5.4,6.7,23,0.00,,CLR,0.00,VWS V14.01,2013-03-01 11:10:00,
2013-03-01 03:15:00,44.2,8.8,30.35,NW,311,3.6,5.4,23,0.00,,CLR,0.00,VWS V14.01,2013-03-01 11:15:00,
2013-03-01 03:20:00,44.2,8.8,30.35,NW,307,3.1,3.1,23,0.00,,CLR,0.00,VWS V14.01,2013-03-01 11:20:00,
2013-03-01 03:25:00,44.2,8.8,30.35,NW,313,4.0,5.4,23,0.00,,CLR,0.00,VWS V14.01,2013-03-01 11:25:00,
2013-03-01 03:30:00,44.2,8.8,30.35,NW,308,6.3,6.3,23,0.00,,CLR,0.00,VWS V14.01,2013-03-01 11:30:00,
2013-03-01 03:35:00,44.4,8.9,30.35,WNW,302,5.4,8.1,23,0.00,,CLR,0.00,VWS V14.01,2013-03-01 11:35:00,
2013-03-01 03:40:00,44.2,8.8,30.35,WNW,299,6.3,6.3,23,0.00,,CLR,0.00,VWS V14.01,2013-03-01 11:40:00,
2013-03-01 03:45:00,44.2,8.8,30.35,WNW,292,6.3,7.6,23,0.00,,CLR,0.00,VWS V14.01,2013-03-01 11:45:00,
2013-03-01 03:50:00,44.1,8.6,30.35,WNW,292,6.3,8.1,23,0.00,,CLR,0.00,VWS V14.01,2013-03-01 11:50:00,
2013-03-01 03:55:00,44.2,8.8,30.35,WNW,290,6.3,8.1,23,0.00,,CLR,0.00,VWS V14.01,2013-03-01 11:55:00,
2013-03-01 04:00:00,44.4,8.9,30.35,WNW,295,8.1,8.3,23,0.00,,CLR,0.00,VWS V14.01,2013-03-01 12:00:00,
2013-03-01 04:05:00,44.2,8.8,30.35,NW,312,3.6,4.9,23,0.00,,CLR,0.00,VWS V14.01,2013-03-01 12:05:00,
2013-03-01 04:10:00,43.5,8.2,30.35,WNW,301,3.6,5.8,23,0.00,,CLR,0.00,VWS V14.01,2013-03-01 12:10:00,
2013-03-01 04:15:00,43.5,8.2,30.35,WNW,291,4.0,5.4,23,0.00,,CLR,0.00,VWS V14.01,2013-03-01 12:15:00,
2013-03-01 04:20:00,43.9,8.5,30.35,WNW,290,3.1,5.4,23,0.00,,CLR,0.00,VWS V14.01,2013-03-01 12:20:00,
2013-03-01 04:25:00,44.1,8.6,30.35,NW,305,2.7,7.2,23,0.00,,CLR,0.00,VWS V14.01,2013-03-01 12:25:00,
2013-03-01 04:30:00,44.2,8.8,30.35,WNW,291,6.3,6.3,23,0.00,,CLR,0.00,VWS V14.01,2013-03-01 12:30:00,
2013-03-01 04:35:00,44.6,8.1,30.35,WNW,295,6.3,6.3,22,0.00,,CLR,0.00,VWS V14.01,2013-03-01 12:35:00,
2013-03-01 04:40:00,44.6,8.1,30.35,WNW,291,4.9,5.4,22,0.00,,CLR,0.00,VWS V14.01,2013-03-01 12:40:00,
2013-03-01 04:45:00,44.8,8.3,30.35,WNW,283,4.0,5.4,22,0.00,,CLR,0.00,VWS V14.01,2013-03-01 12:45:00,
2013-03-01 04:50:00,44.8,8.3,30.35,NW,305,5.4,5.8,22,0.00,,CLR,0.00,VWS V14.01,2013-03-01 12:50:00,
2013-03-01 04:55:00,44.6,8.1,30.35,WNW,303,4.0,5.4,22,0.00,,CLR,0.00,VWS V14.01,2013-03-01 12:55:00,
2013-03-01 05:00:00,44.6,8.1,30.35,NW,306,0.0,0.0,22,0.00,,CLR,0.00,VWS V14.01,2013-03-01 13:00:00,
2013-03-01 05:05:00,44.6,8.1,30.35,NW,306,0.0,0.0,22,0.00,,CLR,0.00,VWS V14.01,2013-03-01 13:05:00,
2013-03-01 05:10:00,44.6,8.1,30.35,NW,305,0.0,0.0,22,0.00,,CLR,0.00,VWS V14.01,2013-03-01 13:10:00,
2013-03-01 05:15:00,44.1,8.6,30.35,WNW,288,4.0,4.0,23,0.00,,CLR,0.00,VWS V14.01,2013-03-01 13:15:00,
2013-03-01 05:20:00,44.2,8.8,30.35,NW,310,5.4,5.4,23,0.00,,CLR,0.00,VWS V14.01,2013-03-01 13:20:00,
2013-03-01 05:25:00,44.2,8.8,30.35,NW,310,0.0,0.0,23,0.00,,CLR,0.00,VWS V14.01,2013-03-01 13:25:00,
2013-03-01 05:30:00,44.1,8.6,30.35,NW,306,3.6,4.9,23,0.00,,CLR,0.00,VWS V14.01,2013-03-01 13:30:00,
2013-03-01 05:35:00,43.7,8.3,30.35,NW,319,4.0,4.5,23,0.00,,CLR,0.00,VWS V14.01,2013-03-01 13:35:00,
2013-03-01 05:40:00,43.0,7.7,30.35,NW,314,0.0,0.0,23,0.00,,CLR,0.00,VWS V14.01,2013-03-01 13:40:00,
2013-03-01 05:45:00,42.6,7.4,30.35,NW,313,0.0,0.0,23,0.00,,CLR,0.00,VWS V14.01,2013-03-01 13:45:00,
2013-03-01 05:50:00,42.1,7.0,30.35,NW,321,0.0,0.0,23,0.00,,CLR,0.00,VWS V14.01,2013-03-01 13:50:00,
2013-03-01 05:55:00,41.5,6.5,30.35,NNW,335,0.0,0.0,23,0.00,,CLR,0.00,VWS V14.01,2013-03-01 13:55:00,
2013-03-01 06:00:00,41.4,6.4,30.35,NNW,335,0.0,0.0,23,0.00,,CLR,0.00,VWS V14.01,2013-03-01 14:00:00,
2013-03-01 06:05:00,41.4,6.4,30.35,WNW,300,0.0,0.0,23,0.00,,FEW250,0.00,VWS V14.01,2013-03-01 14:05:00,
2013-03-01 06:10:00,41.5,6.5,30.35,WNW,294,4.5,5.4,23,0.00,,FEW250,0.00,VWS V14.01,2013-03-01 14:10:00,
2013-03-01 06:15:00,41.9,6.8,30.35,WNW,296,0.0,0.0,23,0.00,,FEW250,0.00,VWS V14.01,2013-03-01 14:15:00,
2013-03-01 06:20:00,42.3,7.1,30.35,WNW,296,0.0,0.0,23,0.00,,FEW250,0.00,VWS V14.01,2013-03-01 14:20:00,
2013-03-01 06:25:00,42.3,7.1,30.35,NW,315,3.1,4.0,23,0.00,,FEW250,0.00,VWS V14.01,2013-03-01 14:25:00,
2013-03-01 06:30:00,42.1,7.0,30.35,NW,319,2.2,2.2,23,0.00,,FEW250,0.00,VWS V14.01,2013-03-01 14:30:00,
2013-03-01 06:35:00,42.1,7.0,30.35,WNW,290,4.0,4.0,23,0.00,,FEW250,0.00,VWS V14.01,2013-03-01 14:35:00,
2013-03-01 06:40:00,42.4,7.3,30.35,NW,311,0.0,2.2,23,0.00,,FEW250,0.00,VWS V14.01,2013-03-01 14:40:00,
2013-03-01 06:45:00,43.2,7.9,30.35,NW,310,0.0,0.0,23,0.00,,FEW250,0.00,VWS V14.01,2013-03-01 14:45:00,
2013-03-01 06:50:00,43.7,8.3,30.35,NW,310,0.0,0.0,23,0.00,,FEW250,0.00,VWS V14.01,2013-03-01 14:50:00,
2013-03-01 06:55:00,44.6,8.1,30.38,WNW,290,0.0,0.0,22,0.00,,FEW250,0.00,VWS V14.01,2013-03-01 14:55:00,
2013-03-01 07:00:00,45.5,8.9,30.38,WNW,284,0.0,0.0,22,0.00,,FEW250,0.00,VWS V14.01,2013-03-01 15:00:00,
2013-03-01 07:05:00,46.4,9.6,30.38,WNW,285,0.0,0.0,22,0.00,,FEW250,0.00,VWS V14.01,2013-03-01 15:05:00,
2013-03-01 07:10:00,47.3,10.4,30.38,WNW,285,0.0,0.0,22,0.00,,FEW250,0.00,VWS V14.01,2013-03-01 15:10:00,
2013-03-01 07:15:00,47.8,10.9,30.38,West,280,0.0,0.0,22,0.00,,FEW250,0.00,VWS V14.01,2013-03-01 15:15:00,
2013-03-01 07:20:00,48.4,10.3,30.38,West,267,5.4,5.4,21,0.00,,FEW250,0.00,VWS V14.01,2013-03-01 15:20:00,
2013-03-01 07:25:00,49.1,10.9,30.38,West,271,3.6,5.4,21,0.00,,FEW250,0.00,VWS V14.01,2013-03-01 15:25:00,
2013-03-01 07:30:00,49.6,11.3,30.38,West,279,0.0,0.0,21,0.00,,FEW250,0.00,VWS V14.01,2013-03-01 15:30:00,
2013-03-01 07:35:00,50.5,12.1,30.38,West,280,0.0,0.0,21,0.00,,FEW250,0.00,VWS V14.01,2013-03-01 15:35:00,
2013-03-01 07:40:00,51.4,12.8,30.38,West,279,0.0,0.0,21,0.00,,FEW250,0.00,VWS V14.01,2013-03-01 15:40:00,
2013-03-01 07:45:00,52.3,13.6,30.38,West,279,0.0,0.0,21,0.00,,FEW250,0.00,VWS V14.01,2013-03-01 15:45:00,
2013-03-01 07:50:00,52.9,14.0,30.38,West,279,0.0,0.0,21,0.00,,FEW250,0.00,VWS V14.01,2013-03-01 15:50:00,
2013-03-01 07:55:00,53.6,13.5,30.38,West,280,0.0,0.0,20,0.00,,FEW250,0.00,VWS V14.01,2013-03-01 15:55:00,
2013-03-01 08:00:00,54.7,14.4,30.38,West,279,0.0,0.0,20,0.00,,FEW250,0.00,VWS V14.01,2013-03-01 16:00:00,
2013-03-01 08:05:00,55.9,15.5,30.38,West,279,0.0,0.0,20,0.00,,CLR,0.00,VWS V14.01,2013-03-01 16:05:00,
2013-03-01 08:10:00,57.2,15.3,30.38,West,279,0.0,0.0,19,0.00,,CLR,0.00,VWS V14.01,2013-03-01 16:10:00,
2013-03-01 08:15:00,58.1,16.1,30.38,WNW,295,0.0,0.0,19,0.00,,CLR,0.00,VWS V14.01,2013-03-01 16:15:00,
2013-03-01 08:20:00,59.0,16.8,30.38,NW,322,0.0,0.0,19,0.00,,CLR,0.00,VWS V14.01,2013-03-01 16:20:00,
2013-03-01 08:25:00,59.4,17.1,30.38,NW,322,0.0,0.0,19,0.00,,CLR,0.00,VWS V14.01,2013-03-01 16:25:00,
2013-03-01 08:30:00,59.7,17.4,30.38,NW,322,0.0,0.0,19,0.00,,CLR,0.00,VWS V14.01,2013-03-01 16:30:00,
2013-03-01 08:35:00,59.4,17.1,30.38,NW,322,2.2,3.1,19,0.00,,CLR,0.00,VWS V14.01,2013-03-01 16:35:00,
2013-03-01 08:40:00,58.5,16.4,30.38,WSW,237,0.0,2.7,19,0.00,,CLR,0.00,VWS V14.01,2013-03-01 16:40:00,
2013-03-01 08:45:00,58.1,16.1,30.38,SW,236,0.0,0.0,19,0.00,,CLR,0.00,VWS V14.01,2013-03-01 16:45:00,
2013-03-01 08:50:00,58.5,16.4,30.38,South,175,3.1,4.0,19,0.00,,CLR,0.00,VWS V14.01,2013-03-01 16:50:00,
2013-03-01 08:55:00,58.1,16.1,30.38,South,176,0.0,0.0,19,0.00,,CLR,0.00,VWS V14.01,2013-03-01 16:55:00,
2013-03-01 09:00:00,58.5,16.4,30.38,SE,146,0.0,0.0,19,0.00,,CLR,0.00,VWS V14.01,2013-03-01 17:00:00,
2013-03-01 09:05:00,58.8,16.7,30.38,SSE,150,3.6,4.0,19,0.00,,CLR,0.00,VWS V14.01,2013-03-01 17:05:00,
2013-03-01 09:10:00,59.2,17.0,30.38,SSE,151,0.0,0.0,19,0.00,,CLR,0.00,VWS V14.01,2013-03-01 17:10:00,
2013-03-01 09:15:00,59.7,17.4,30.38,SSE,150,0.0,0.0,19,0.00,,CLR,0.00,VWS V14.01,2013-03-01 17:15:00,
2013-03-01 09:20:00,59.7,17.4,30.38,South,170,0.0,0.0,19,0.00,,CLR,0.00,VWS V14.01,2013-03-01 17:20:00,
2013-03-01 09:25:00,60.1,17.7,30.38,SE,139,3.6,3.6,19,0.00,,CLR,0.00,VWS V14.01,2013-03-01 17:25:00,
2013-03-01 09:30:00,60.4,18.0,30.38,SE,142,3.1,4.9,19,0.00,,CLR,0.00,VWS V14.01,2013-03-01 17:30:00,
2013-03-01 09:35:00,60.8,18.3,30.38,SSE,164,0.0,0.0,19,0.00,,CLR,0.00,VWS V14.01,2013-03-01 17:35:00,
2013-03-01 09:40:00,61.0,18.5,30.38,SE,144,0.0,0.0,19,0.00,,CLR,0.00,VWS V14.01,2013-03-01 17:40:00,
2013-03-01 09:45:00,61.3,18.8,30.38,SE,130,0.0,0.0,19,0.00,,CLR,0.00,VWS V14.01,2013-03-01 17:45:00,
2013-03-01 09:50:00,61.9,19.2,30.38,SE,131,0.0,0.0,19,0.00,,CLR,0.00,VWS V14.01,2013-03-01 17:50:00,
2013-03-01 09:55:00,62.4,22.0,30.38,SE,134,0.0,0.0,21,0.00,,CLR,0.00,VWS V14.01,2013-03-01 17:55:00,
2013-03-01 10:00:00,62.8,18.7,30.38,ESE,103,2.7,2.7,18,0.00,,CLR,0.00,VWS V14.01,2013-03-01 18:00:00,
2013-03-01 10:05:00,62.6,22.1,30.38,SSW,208,2.2,6.3,21,0.00,,CLR,0.00,VWS V14.01,2013-03-01 18:05:00,
2013-03-01 10:10:00,62.8,18.7,30.38,SE,125,0.0,0.0,18,0.00,,CLR,0.00,VWS V14.01,2013-03-01 18:10:00,
2013-03-01 10:14:00,63.5,22.9,30.38,SSW,207,2.2,2.2,21,0.00,,CLR,0.00,VWS V14.01,2013-03-01 18:14:00,
2013-03-01 10:19:00,63.5,22.9,30.38,SSW,213,0.0,0.0,21,0.00,,CLR,0.00,VWS V14.01,2013-03-01 18:19:00,
2013-03-01 10:24:00,63.9,23.2,30.38,SSW,201,3.1,3.1,21,0.00,,CLR,0.00,VWS V14.01,2013-03-01 18:24:00,
2013-03-01 10:29:00,63.7,23.0,30.38,SW,227,0.0,5.4,21,0.00,,CLR,0.00,VWS V14.01,2013-03-01 18:29:00,
2013-03-01 10:34:00,63.7,23.0,30.38,SSW,201,0.0,3.1,21,0.00,,CLR,0.00,VWS V14.01,2013-03-01 18:34:00,
2013-03-01 10:39:00,63.9,23.2,30.35,SSW,209,0.0,0.0,21,0.00,,CLR,0.00,VWS V14.01,2013-03-01 18:39:00,
2013-03-01 10:45:00,64.2,23.5,30.35,SW,236,4.9,4.9,21,0.00,,CLR,0.00,VWS V14.01,2013-03-01 18:45:00,
2013-03-01 10:50:00,64.4,22.5,30.35,WSW,244,4.0,5.4,20,0.00,,CLR,0.00,VWS V14.01,2013-03-01 18:50:00,
2013-03-01 10:55:00,64.8,22.8,30.35,WSW,254,0.0,4.9,20,0.00,,CLR,0.00,VWS V14.01,2013-03-01 18:55:00,
2013-03-01 11:00:00,65.3,23.2,30.35,South,191,4.9,6.3,20,0.00,,CLR,0.00,VWS V14.01,2013-03-01 19:00:00,
2013-03-01 11:05:00,65.5,23.4,30.35,SSE,150,3.6,5.4,20,0.00,,CLR,0.00,VWS V14.01,2013-03-01 19:05:00,
2013-03-01 11:10:00,66.2,24.0,30.35,SE,142,0.0,2.2,20,0.00,,CLR,0.00,VWS V14.01,2013-03-01 19:10:00,
2013-03-01 11:15:00,67.3,24.9,30.35,West,271,0.0,0.0,20,0.00,,CLR,0.00,VWS V14.01,2013-03-01 19:15:00,
2013-03-01 11:20:00,67.6,25.2,30.35,SW,216,5.4,5.4,20,0.00,,CLR,0.00,VWS V14.01,2013-03-01 19:20:00,
2013-03-01 11:25:00,67.3,24.9,30.35,SE,140,4.0,4.0,20,0.00,,CLR,0.00,VWS V14.01,2013-03-01 19:25:00,
2013-03-01 11:30:00,67.3,24.9,30.35,WSW,249,5.4,5.4,20,0.00,,CLR,0.00,VWS V14.01,2013-03-01 19:30:00,
2013-03-01 11:35:00,68.0,25.5,30.35,SE,146,3.1,5.8,20,0.00,,CLR,0.00,VWS V14.01,2013-03-01 19:35:00,
2013-03-01 11:40:00,67.6,25.2,30.35,SSW,200,2.7,2.7,20,0.00,,CLR,0.00,VWS V14.01,2013-03-01 19:40:00,
2013-03-01 11:45:00,68.0,25.5,30.35,SW,214,6.3,6.3,20,0.00,,CLR,0.00,VWS V14.01,2013-03-01 19:45:00,
2013-03-01 11:50:00,68.0,25.5,30.35,WSW,246,3.6,5.8,20,0.00,,CLR,0.00,VWS V14.01,2013-03-01 19:50:00,
2013-03-01 11:55:00,69.3,26.5,30.32,WSW,248,4.9,4.9,20,0.00,,CLR,0.00,VWS V14.01,2013-03-01 19:55:00,
2013-03-01 12:00:00,69.6,26.8,30.32,WSW,254,0.0,0.0,20,0.00,,CLR,0.00,VWS V14.01,2013-03-01 20:00:00,
2013-03-01 12:04:00,70.3,26.2,30.32,South,186,4.9,4.9,19,0.00,,CLR,0.00,VWS V14.01,2013-03-01 20:04:00,
2013-03-01 12:09:00,70.5,26.3,30.32,SSW,197,0.0,0.0,19,0.00,,CLR,0.00,VWS V14.01,2013-03-01 20:09:00,
2013-03-01 12:14:00,70.7,26.5,30.32,SW,214,0.0,0.0,19,0.00,,CLR,0.00,VWS V14.01,2013-03-01 20:14:00,
2013-03-01 12:19:00,71.8,27.3,30.32,SSW,207,0.0,0.0,19,0.00,,CLR,0.00,VWS V14.01,2013-03-01 20:19:00,
2013-03-01 12:24:00,72.1,27.6,30.32,WSW,252,0.0,0.0,19,0.00,,CLR,0.00,VWS V14.01,2013-03-01 20:24:00,
2013-03-01 12:29:00,71.8,27.3,30.32,SSW,207,4.0,4.0,19,0.00,,CLR,0.00,VWS V14.01,2013-03-01 20:29:00,
2013-03-01 12:34:00,70.7,26.5,30.32,WSW,249,4.0,5.4,19,0.00,,CLR,0.00,VWS V14.01,2013-03-01 20:34:00,
2013-03-01 12:39:00,72.0,27.5,30.29,WSW,247,4.9,4.9,19,0.00,,CLR,0.00,VWS V14.01,2013-03-01 20:39:00,
2013-03-01 12:44:00,71.6,27.2,30.29,SSW,193,0.0,0.0,19,0.00,,CLR,0.00,VWS V14.01,2013-03-01 20:44:00,
2013-03-01 12:49:00,73.0,28.4,30.29,SSW,206,0.0,0.0,19,0.00,,CLR,0.00,VWS V14.01,2013-03-01 20:49:00,
2013-03-01 12:54:00,75.0,28.7,30.29,West,271,0.0,0.0,18,0.00,,CLR,0.00,VWS V14.01,2013-03-01 20:54:00,
2013-03-01 12:59:00,76.5,29.9,30.29,NW,308,0.0,0.0,18,0.00,,CLR,0.00,VWS V14.01,2013-03-01 20:59:00,
2013-03-01 13:04:00,77.7,30.9,30.29,NW,317,6.7,6.7,18,0.00,,CLR,0.00,VWS V14.01,2013-03-01 21:04:00,
2013-03-01 13:09:00,79.2,30.6,30.29,NW,318,0.0,3.6,17,0.00,,CLR,0.00,VWS V14.01,2013-03-01 21:09:00,
2013-03-01 13:14:00,79.7,31.1,30.29,NW,318,0.0,0.0,17,0.00,,CLR,0.00,VWS V14.01,2013-03-01 21:14:00,
2013-03-01 13:19:00,78.8,30.4,30.29,NW,317,0.0,0.0,17,0.00,,CLR,0.00,VWS V14.01,2013-03-01 21:19:00,
2013-03-01 13:24:00,77.9,31.0,30.29,SE,133,2.2,4.0,18,0.00,,CLR,0.00,VWS V14.01,2013-03-01 21:24:00,
2013-03-01 13:29:00,76.8,30.1,30.29,SSW,201,0.0,0.0,18,0.00,,CLR,0.00,VWS V14.01,2013-03-01 21:29:00,
2013-03-01 13:34:00,74.8,28.5,30.29,WSW,238,7.6,8.7,18,0.00,,CLR,0.00,VWS V14.01,2013-03-01 21:34:00,
2013-03-01 13:39:00,73.6,27.5,30.26,West,265,0.0,0.0,18,0.00,,CLR,0.00,VWS V14.01,2013-03-01 21:39:00,
2013-03-01 13:44:00,75.2,28.8,30.26,South,177,0.0,0.0,18,0.00,,CLR,0.00,VWS V14.01,2013-03-01 21:44:00,
2013-03-01 13:49:00,74.3,28.1,30.26,South,172,0.0,0.0,18,0.00,,CLR,0.00,VWS V14.01,2013-03-01 21:49:00,
2013-03-01 13:54:00,74.5,28.2,30.26,South,172,0.0,0.0,18,0.00,,CLR,0.00,VWS V14.01,2013-03-01 21:54:00,
2013-03-01 13:59:00,75.4,29.0,30.26,SW,236,0.0,0.0,18,0.00,,CLR,0.00,VWS V14.01,2013-03-01 21:59:00,
2013-03-01 14:04:00,73.9,27.8,30.26,SSW,203,5.4,5.8,18,0.00,,CLR,0.00,VWS V14.01,2013-03-01 22:04:00,
2013-03-01 14:09:00,73.0,28.4,30.26,SSW,208,0.0,0.0,19,0.00,,CLR,0.00,VWS V14.01,2013-03-01 22:09:00,
2013-03-01 14:14:00,73.6,27.5,30.26,West,275,0.0,3.1,18,0.00,,CLR,0.00,VWS V14.01,2013-03-01 22:14:00,
2013-03-01 14:19:00,74.5,28.2,30.26,West,276,0.0,0.0,18,0.00,,CLR,0.00,VWS V14.01,2013-03-01 22:19:00,
2013-03-01 14:24:00,75.0,28.7,30.26,SW,236,4.0,4.0,18,0.00,,CLR,0.00,VWS V14.01,2013-03-01 22:24:00,
2013-03-01 14:29:00,74.3,28.1,30.26,WSW,240,6.3,6.3,18,0.00,,CLR,0.00,VWS V14.01,2013-03-01 22:29:00,
2013-03-01 14:34:00,73.8,27.6,30.26,SSW,211,4.9,5.4,18,0.00,,CLR,0.00,VWS V14.01,2013-03-01 22:34:00,
2013-03-01 14:39:00,74.3,28.1,30.26,NW,307,0.0,0.0,18,0.00,,CLR,0.00,VWS V14.01,2013-03-01 22:39:00,
2013-03-01 14:44:00,74.7,28.4,30.26,SSW,199,0.0,0.0,18,0.00,,CLR,0.00,VWS V14.01,2013-03-01 22:44:00,
2013-03-01 14:49:00,75.2,28.8,30.26,WNW,284,2.2,2.7,18,0.00,,CLR,0.00,VWS V14.01,2013-03-01 22:49:00,
2013-03-01 14:54:00,76.5,29.9,30.26,WSW,247,3.1,3.6,18,0.00,,CLR,0.00,VWS V14.01,2013-03-01 22:54:00,
2013-03-01 14:59:00,75.4,29.0,30.26,WSW,241,0.0,0.0,18,0.00,,CLR,0.00,VWS V14.01,2013-03-01 22:59:00,
2013-03-01 15:04:00,76.1,29.6,30.26,West,265,0.0,0.0,18,0.00,,CLR,0.00,VWS V14.01,2013-03-01 23:04:00,
2013-03-01 15:09:00,77.0,30.3,30.26,NW,310,0.0,0.0,18,0.00,,CLR,0.00,VWS V14.01,2013-03-01 23:09:00,
2013-03-01 15:14:00,77.4,30.6,30.26,West,267,2.2,2.2,18,0.00,,CLR,0.00,VWS V14.01,2013-03-01 23:14:00,
2013-03-01 15:19:00,76.1,29.6,30.26,SW,224,2.7,2.7,18,0.00,,CLR,0.00,VWS V14.01,2013-03-01 23:19:00,
2013-03-01 15:24:00,75.4,29.0,30.23,West,269,0.0,0.0,18,0.00,,CLR,0.00,VWS V14.01,2013-03-01 23:24:00,
2013-03-01 15:29:00,75.4,29.0,30.23,SSE,149,2.2,2.7,18,0.00,,CLR,0.00,VWS V14.01,2013-03-01 23:29:00,
2013-03-01 15:34:00,74.5,28.2,30.23,ESE,104,0.0,0.0,18,0.00,,CLR,0.00,VWS V14.01,2013-03-01 23:34:00,
2013-03-01 15:39:00,73.8,27.6,30.23,ESE,104,0.0,0.0,18,0.00,,CLR,0.00,VWS V14.01,2013-03-01 23:39:00,
2013-03-01 15:44:00,73.8,27.6,30.23,WSW,243,0.0,0.0,18,0.00,,CLR,0.00,VWS V14.01,2013-03-01 23:44:00,
2013-03-01 15:49:00,74.3,28.1,30.23,SW,223,0.0,0.0,18,0.00,,CLR,0.00,VWS V14.01,2013-03-01 23:49:00,
2013-03-01 15:54:00,74.5,28.2,30.23,SW,227,4.9,6.3,18,0.00,,CLR,0.00,VWS V14.01,2013-03-01 23:54:00,
2013-03-01 15:59:00,73.8,27.6,30.23,SSW,200,4.0,4.0,18,0.00,,CLR,0.00,VWS V14.01,2013-03-01 23:59:00,
2013-03-01 16:04:00,73.8,27.6,30.23,SE,130,4.0,4.0,18,0.00,,CLR,0.00,VWS V14.01,2013-03-02 00:04:00,
2013-03-01 16:09:00,73.6,27.5,30.23,SE,135,4.0,5.8,18,0.00,,CLR,0.00,VWS V14.01,2013-03-02 00:09:00,
2013-03-01 16:14:00,73.2,28.5,30.23,East,86,3.1,3.6,19,0.00,,CLR,0.00,VWS V14.01,2013-03-02 00:14:00,
2013-03-01 16:19:00,73.0,28.4,30.23,SE,141,0.0,5.4,19,0.00,,CLR,0.00,VWS V14.01,2013-03-02 00:19:00,
2013-03-01 16:24:00,73.0,28.4,30.23,South,176,4.0,4.0,19,0.00,,CLR,0.00,VWS V14.01,2013-03-02 00:24:00,
2013-03-01 16:29:00,73.2,28.5,30.23,SSE,161,2.7,3.6,19,0.00,,CLR,0.00,VWS V14.01,2013-03-02 00:29:00,
2013-03-01 16:34:00,73.2,28.5,30.23,South,175,0.0,0.0,19,0.00,,CLR,0.00,VWS V14.01,2013-03-02 00:34:00,
2013-03-01 16:39:00,73.4,27.4,30.23,SE,142,5.8,6.3,18,0.00,,CLR,0.00,VWS V14.01,2013-03-02 00:39:00,
2013-03-01 16:44:00,73.2,28.5,30.23,SSE,147,4.0,4.0,19,0.00,,CLR,0.00,VWS V14.01,2013-03-02 00:44:00,
2013-03-01 16:49:00,73.0,28.4,30.23,SSW,195,3.1,4.0,19,0.00,,CLR,0.00,VWS V14.01,2013-03-02 00:49:00,
2013-03-01 16:54:00,73.0,28.4,30.23,SSW,192,4.9,4.9,19,0.00,,CLR,0.00,VWS V14.01,2013-03-02 00:54:00,
2013-03-01 16:59:00,72.9,28.2,30.23,SSE,150,3.6,5.4,19,0.00,,CLR,0.00,VWS V14.01,2013-03-02 00:59:00,
2013-03-01 17:04:00,72.3,27.8,30.23,SE,139,0.0,2.7,19,0.00,,CLR,0.00,VWS V14.01,2013-03-02 01:04:00,
2013-03-01 17:09:00,72.1,27.6,30.23,SE,140,2.7,4.0,19,0.00,,CLR,0.00,VWS V14.01,2013-03-02 01:09:00,
2013-03-01 17:14:00,72.0,27.5,30.23,SE,139,5.4,5.4,19,0.00,,CLR,0.00,VWS V14.01,2013-03-02 01:14:00,
2013-03-01 17:19:00,71.6,27.2,30.23,SE,140,0.0,2.7,19,0.00,,CLR,0.00,VWS V14.01,2013-03-02 01:19:00,
2013-03-01 17:24:00,71.2,26.9,30.23,SE,139,0.0,0.0,19,0.00,,CLR,0.00,VWS V14.01,2013-03-02 01:24:00,
2013-03-01 17:29:00,71.1,26.8,30.23,SE,140,0.0,0.0,19,0.00,,CLR,0.00,VWS V14.01,2013-03-02 01:29:00,
2013-03-01 17:34:00,70.7,26.5,30.23,SE,139,0.0,0.0,19,0.00,,CLR,0.00,VWS V14.01,2013-03-02 01:34:00,
2013-03-01 17:39:00,70.5,26.3,30.23,SE,139,0.0,0.0,19,0.00,,CLR,0.00,VWS V14.01,2013-03-02 01:39:00,
2013-03-01 17:43:00,70.2,26.0,30.23,SE,139,0.0,0.0,19,0.00,,CLR,0.00,VWS V14.01,2013-03-02 01:43:00,
2013-03-01 17:48:00,70.0,25.9,30.23,SE,140,0.0,0.0,19,0.00,,CLR,0.00,VWS V14.01,2013-03-02 01:48:00,
2013-03-01 17:53:00,69.8,25.7,30.23,SE,139,0.0,0.0,19,0.00,,CLR,0.00,VWS V14.01,2013-03-02 01:53:00,
2013-03-01 17:58:00,69.6,26.8,30.23,SE,140,0.0,0.0,20,0.00,,CLR,0.00,VWS V14.01,2013-03-02 01:58:00,
2013-03-01 18:03:00,69.4,26.7,30.23,SE,140,0.0,0.0,20,0.00,,CLR,0.00,VWS V14.01,2013-03-02 02:03:00,
2013-03-01 18:08:00,68.9,26.2,30.23,SE,139,0.0,0.0,20,0.00,,CLR,0.00,VWS V14.01,2013-03-02 02:08:00,
2013-03-01 18:13:00,68.4,25.8,30.23,SE,139,0.0,0.0,20,0.00,,CLR,0.00,VWS V14.01,2013-03-02 02:13:00,
2013-03-01 18:18:00,67.8,25.3,30.23,SE,140,0.0,0.0,20,0.00,,CLR,0.00,VWS V14.01,2013-03-02 02:18:00,
2013-03-01 18:23:00,67.6,25.2,30.23,SE,139,0.0,0.0,20,0.00,,CLR,0.00,VWS V14.01,2013-03-02 02:23:00,
2013-03-01 18:28:00,67.5,25.0,30.23,SE,139,0.0,0.0,20,0.00,,CLR,0.00,VWS V14.01,2013-03-02 02:28:00,
2013-03-01 18:33:00,67.1,24.7,30.23,SE,139,0.0,0.0,20,0.00,,CLR,0.00,VWS V14.01,2013-03-02 02:33:00,
2013-03-01 18:38:00,66.6,24.3,30.23,SE,139,0.0,0.0,20,0.00,,CLR,0.00,VWS V14.01,2013-03-02 02:38:00,
2013-03-01 18:43:00,65.5,23.4,30.23,SE,140,0.0,0.0,20,0.00,,CLR,0.00,VWS V14.01,2013-03-02 02:43:00,
2013-03-01 18:48:00,64.8,22.8,30.23,SE,139,0.0,0.0,20,0.00,,CLR,0.00,VWS V14.01,2013-03-02 02:48:00,
2013-03-01 18:53:00,64.2,23.5,30.23,SE,139,0.0,0.0,21,0.00,,CLR,0.00,VWS V14.01,2013-03-02 02:53:00,
2013-03-01 18:58:00,63.9,23.2,30.23,SE,140,0.0,0.0,21,0.00,,CLR,0.00,VWS V14.01,2013-03-02 02:58:00,
2013-03-01 19:03:00,63.5,22.9,30.23,SE,139,0.0,0.0,21,0.00,,CLR,0.00,VWS V14.01,2013-03-02 03:03:00,
2013-03-01 19:08:00,63.0,22.5,30.23,SE,139,0.0,0.0,21,0.00,,CLR,0.00,VWS V14.01,2013-03-02 03:08:00,
2013-03-01 19:13:00,62.6,18.5,30.23,SE,140,0.0,0.0,18,0.00,,CLR,0.00,VWS V14.01,2013-03-02 03:13:00,
2013-03-01 19:18:00,62.1,19.3,30.23,SE,139,0.0,0.0,19,0.00,,CLR,0.00,VWS V14.01,2013-03-02 03:18:00,
2013-03-01 19:23:00,61.7,19.0,30.23,SE,139,0.0,0.0,19,0.00,,CLR,0.00,VWS V14.01,2013-03-02 03:23:00,
2013-03-01 19:28:00,61.2,18.6,30.23,WNW,283,3.1,4.0,19,0.00,,CLR,0.00,VWS V14.01,2013-03-02 03:28:00,
2013-03-01 19:33:00,60.4,18.0,30.23,NW,311,3.6,3.6,19,0.00,,CLR,0.00,VWS V14.01,2013-03-02 03:33:00,
2013-03-01 19:38:00,60.1,17.7,30.23,NW,311,3.6,3.6,19,0.00,,CLR,0.00,VWS V14.01,2013-03-02 03:38:00,
2013-03-01 19:43:00,59.7,17.4,30.23,NW,310,5.4,5.4,19,0.00,,CLR,0.00,VWS V14.01,2013-03-02 03:43:00,
2013-03-01 19:48:00,59.5,17.3,30.23,WNW,302,8.1,8.1,19,0.00,,CLR,0.00,VWS V14.01,2013-03-02 03:48:00,
2013-03-01 19:53:00,59.4,17.1,30.23,NW,305,6.3,6.3,19,0.00,,CLR,0.00,VWS V14.01,2013-03-02 03:53:00,
2013-03-01 19:58:00,59.5,17.3,30.23,WNW,303,7.6,7.6,19,0.00,,CLR,0.00,VWS V14.01,2013-03-02 03:58:00,
2013-03-01 20:03:00,59.7,17.4,30.23,NW,308,6.3,6.3,19,0.00,,CLR,0.00,VWS V14.01,2013-03-02 04:03:00,
2013-03-01 20:08:00,59.7,17.4,30.23,NW,308,6.7,8.3,19,0.00,,CLR,0.00,VWS V14.01,2013-03-02 04:08:00,
2013-03-01 20:13:00,59.7,17.4,30.23,WNW,303,7.6,8.3,19,0.00,,CLR,0.00,VWS V14.01,2013-03-02 04:13:00,
2013-03-01 20:18:00,60.1,17.7,30.23,WNW,300,4.9,4.9,19,0.00,,CLR,0.00,VWS V14.01,2013-03-02 04:18:00,
2013-03-01 20:23:00,60.1,17.7,30.23,WNW,299,5.8,6.3,19,0.00,,CLR,0.00,VWS V14.01,2013-03-02 04:23:00,
2013-03-01 20:28:00,60.3,17.9,30.23,WNW,296,6.3,6.3,19,0.00,,CLR,0.00,VWS V14.01,2013-03-02 04:28:00,
2013-03-01 20:33:00,60.1,17.7,30.23,WNW,294,7.6,7.6,19,0.00,,CLR,0.00,VWS V14.01,2013-03-02 04:33:00,
2013-03-01 20:38:00,59.7,17.4,30.26,WNW,292,7.6,7.6,19,0.00,,CLR,0.00,VWS V14.01,2013-03-02 04:38:00,
2013-03-01 20:43:00,59.4,17.1,30.26,WNW,298,8.1,8.1,19,0.00,,CLR,0.00,VWS V14.01,2013-03-02 04:43:00,
2013-03-01 20:48:00,58.8,16.7,30.26,NW,320,8.3,8.7,19,0.00,,CLR,0.00,VWS V14.01,2013-03-02 04:48:00,
2013-03-01 20:53:00,58.6,16.5,30.26,NW,316,5.8,5.8,19,0.00,,CLR,0.00,VWS V14.01,2013-03-02 04:53:00,
2013-03-01 20:58:00,58.5,16.4,30.26,NNW,331,3.1,3.6,19,0.00,,CLR,0.00,VWS V14.01,2013-03-02 04:58:00,
2013-03-01 21:00:00,58.5,16.4,30.26,NW,321,0.0,3.1,19,0.00,,CLR,0.00,VWS V14.01,2013-03-02 05:00:00,
2013-03-01 21:05:00,58.1,16.1,30.26,NW,325,3.1,3.1,19,0.00,,CLR,0.00,VWS V14.01,2013-03-02 05:05:00,
2013-03-01 21:10:00,57.9,15.9,30.26,NNW,329,4.9,4.9,19,0.00,,CLR,0.00,VWS V14.01,2013-03-02 05:10:00,
2013-03-01 21:15:00,57.6,15.6,30.26,NNW,330,0.0,3.6,19,0.00,,CLR,0.00,VWS V14.01,2013-03-02 05:15:00,
2013-03-01 21:20:00,56.8,16.2,30.26,NNW,338,0.0,0.0,20,0.00,,CLR,0.00,VWS V14.01,2013-03-02 05:20:00,
2013-03-01 21:25:00,56.8,16.2,30.26,NNW,338,0.0,0.0,20,0.00,,CLR,0.00,VWS V14.01,2013-03-02 05:25:00,
2013-03-01 21:30:00,57.0,16.4,30.26,NNW,338,0.0,0.0,20,0.00,,CLR,0.00,VWS V14.01,2013-03-02 05:30:00,
2013-03-01 21:35:00,57.2,15.3,30.26,NNW,337,0.0,0.0,19,0.00,,CLR,0.00,VWS V14.01,2013-03-02 05:35:00,
2013-03-01 21:40:00,57.2,15.3,30.26,WNW,302,4.9,4.9,19,0.00,,CLR,0.00,VWS V14.01,2013-03-02 05:40:00,
2013-03-01 21:45:00,57.2,15.3,30.26,NW,309,5.4,6.3,19,0.00,,CLR,0.00,VWS V14.01,2013-03-02 05:45:00,
2013-03-01 21:50:00,57.2,15.3,30.26,NW,325,3.1,4.0,19,0.00,,CLR,0.00,VWS V14.01,2013-03-02 05:50:00,
2013-03-01 21:55:00,56.7,16.1,30.26,NW,326,0.0,0.0,20,0.00,,CLR,0.00,VWS V14.01,2013-03-02 05:55:00,
2013-03-01 22:00:00,56.5,15.9,30.26,NNW,327,3.1,3.1,20,0.00,,CLR,0.00,VWS V14.01,2013-03-02 06:00:00,
2013-03-01 22:05:00,55.9,15.5,30.26,NW,309,3.1,5.8,20,0.00,,CLR,0.00,VWS V14.01,2013-03-02 06:05:00,
2013-03-01 22:10:00,55.6,15.2,30.26,NW,321,2.2,2.2,20,0.00,,CLR,0.00,VWS V14.01,2013-03-02 06:10:00,
2013-03-01 22:15:00,55.2,14.9,30.26,NW,323,2.7,3.6,20,0.00,,CLR,0.00,VWS V14.01,2013-03-02 06:15:00,
2013-03-01 22:20:00,54.7,14.4,30.26,NNW,331,0.0,0.0,20,0.00,,CLR,0.00,VWS V14.01,2013-03-02 06:20:00,
2013-03-01 22:25:00,54.5,14.3,30.26,NW,318,5.8,5.8,20,0.00,,CLR,0.00,VWS V14.01,2013-03-02 06:25:00,
2013-03-01 22:30:00,54.3,14.1,30.26,NNW,337,4.0,5.4,20,0.00,,CLR,0.00,VWS V14.01,2013-03-02 06:30:00,
2013-03-01 22:35:00,54.3,14.1,30.26,NNW,339,5.8,5.8,20,0.00,,CLR,0.00,VWS V14.01,2013-03-02 06:35:00,
2013-03-01 22:40:00,54.3,14.1,30.26,NNW,338,3.6,3.6,20,0.00,,CLR,0.00,VWS V14.01,2013-03-02 06:40:00,
2013-03-01 22:45:00,54.3,14.1,30.26,NNW,333,2.2,3.6,20,0.00,,CLR,0.00,VWS V14.01,2013-03-02 06:45:00,
2013-03-01 22:50:00,54.1,14.0,30.26,NNW,341,2.7,2.7,20,0.00,,CLR,0.00,VWS V14.01,2013-03-02 06:50:00,
2013-03-01 22:55:00,54.0,13.8,30.26,WNW,299,7.6,7.6,20,0.00,,CLR,0.00,VWS V14.01,2013-03-02 06:55:00,
2013-03-01 23:00:00,54.1,14.0,30.26,NW,310,8.1,8.3,20,0.00,,CLR,0.00,VWS V14.01,2013-03-02 07:00:00,
2013-03-01 23:05:00,54.1,14.0,30.26,NW,308,8.1,8.3,20,0.00,,CLR,0.00,VWS V14.01,2013-03-02 07:05:00,
2013-03-01 23:10:00,54.3,14.1,30.26,NW,308,5.4,8.3,20,0.00,,CLR,0.00,VWS V14.01,2013-03-02 07:10:00,
2013-03-01 23:15:00,54.3,14.1,30.26,NW,318,5.4,6.3,20,0.00,,CLR,0.00,VWS V14.01,2013-03-02 07:15:00,
2013-03-01 23:20:00,54.3,14.1,30.26,NW,311,7.6,8.1,20,0.00,,CLR,0.00,VWS V14.01,2013-03-02 07:20:00,
2013-03-01 23:25:00,54.5,14.3,30.26,WNW,301,5.4,8.3,20,0.00,,CLR,0.00,VWS V14.01,2013-03-02 07:25:00,
2013-03-01 23:30:00,54.5,14.3,30.26,NW,311,5.8,8.1,20,0.00,,CLR,0.00,VWS V14.01,2013-03-02 07:30:00,
2013-03-01 23:35:00,54.5,14.3,30.26,WNW,301,7.6,8.7,20,0.00,,CLR,0.00,VWS V14.01,2013-03-02 07:35:00,
2013-03-01 23:40:00,54.3,14.1,30.26,WNW,298,8.3,8.3,20,0.00,,CLR,0.00,VWS V14.01,2013-03-02 07:40:00,
2013-03-01 23:45:00,54.7,14.4,30.26,West,280,6.7,8.3,20,0.00,,CLR,0.00,VWS V14.01,2013-03-02 07:45:00,
2013-03-01 23:50:00,55.2,14.9,30.26,WNW,299,7.6,9.2,20,0.00,,CLR,0.00,VWS V14.01,2013-03-02 07:50:00,
2013-03-01 23:55:00,55.8,15.3,30.26,WNW,300,5.4,7.6,20,0.00,,CLR,0.00,VWS V14.01,2013-03-02 07:55:00,